User: anonymous   Login
Location: Unspecified
(50.7693°N, 0.0000°E)
Time: 21:18:33
(UTC+00:00)
Language:

Courier 1B Rocket - Orbit

View from above orbital plane
View from above orbital plane
View from above satellite
View from above satellite

Ground track
Ground track

The orbit data is extracted from the following two-line orbital elements,

1    59U 60013B   19167.83674725  .00000098  00000-0  16568-4 0  9997
2    59  28.2486 301.4220 0189174  89.0468 273.1745 13.52968320897421
Epoch (UTC): 16 June 2019 20:04:54
Eccentricity: 0.0189174
inclination: 28.2486°
perigee height: 920 km
apogee height: 1202 km
right ascension of ascending node: 301.4220°
argument of perigee: 89.0468°
revolutions per day: 13.52968320
mean anomaly at epoch: 273.1745°
orbit number at epoch: 89742

The dashed part of the orbit path shows where the satellite is in the earth's shadow,  

DLR